Terug naar catalogus

STARLINK-32908

ActiefCommunicatieVLEO
NORAD 63084·PAYLOAD·🇺🇸 United States

Gelanceerd Feb 23, 2025 vanaf Vandenberg Space Force Base

Loading…

Volgende Passages (komende 24 uur)

TLE

VersSource: CelesTrak SupGP

Epoch: Sep 15, 2026, 02:32 UTC

1 63084C 25037H   26258.10604167 -.00055537  00000+0 -19318-2 0  2584
2 63084  70.0003 235.2390 0002749 267.3666 164.5834 15.29611555    17

Volg STARLINK-32908 in realtime met AllMySat

Download on the App Store